Location: G�ndlingen
(48.0142°N, 7.6396°E)
Time: 18:03:45
(UTC+00:00)

Gblst 52 Del rocket - Pass Details

Date: 05 July 2020
Orbit: 805 x 1366 km, 51.5° (Epoch: 12 August)

Event Time Altitude Azimuth Distance (km) Brightness Sun altitude
Rises 21:06:31 0° 292° (WNW) 3,347 8.3 -11.9°
Reaches altitude 10° 21:08:54 10° 292° (WNW) 2,443 7.5 -12.2°
Maximum altitude 21:14:35 89° 208° (SSW) 893 4.3 -12.7°
Enters shadow 21:20:34 12° 115° (ESE) 2,577 6.2 -13.2°
